FLOCK 3P-49

Last updated on Wed Feb 14 2018 16:20:30 GMT+0000 (Greenwich Mean Time)

1 42001U 17008BF 18045.47584656 .00001514 00000-0 65605-4 0 9993 2 42001 97.4663 111.0827 0009905 85.6076 274.6293 15.23908841 55261
UTC large
Height (km)
Speed (km/s)
/
Latitude / Longitude
Inclination (degrees)
Orbital Period (minutes)
Azimuth
Elevation
Range (km)
Doppler Factor

Next 0 passes for location: London (51.5072 / 0.1276)

Sorry there are no passes over London.